SCP
0 0 0 0 0 0 0 0 0 0 0 0 0 0 0 0 0 0 0 0 0 0 0 0 0 0 0 0 0 0 0 0 0 0 0 0 0 0 0 0 0 0 0 0
0 0 0 0 0 0 0 0 0 0 0 0 0 0 0 0 0 0 0 0 0 0 0 0 0 0 0 0 0 0 0 0 0 0 0 0 0 0 0 0 0 0 0 0
0 0 0 0 0 0 0 0 0 0 0 0 0 0 0 0 0 0 0 0 0 0 0 0 0 0 0 0 0 0 0 0 0 0 0 0 0 0 0 0 0 0 0 0
0 0 0 0 0 0 0 0 0 0 0 0 0 0 0 0 0 0 0 0 0 0 0 0 0 0 0 0 0 0 0 0 0 0 0 0 0 0 0 0 0 0 0 0
0 0 0 0 0 0 0 0 0 0 0 0 0 0 0 0 0 0 0 0 0 0 0 0 0 0 0 0 0 0 0 0 0 0 0 0 0 0 0 0 0 0 0 0
0 0 0 0 0 0 0 0 0 0 0 0 0 0 0 0 0 0 0 0 0 0 0 0 0 0 0 0 0 0 0 0 0 0 0 0 0 0 0 0 0 0 0 0
0 0 0 0 0 0 0 0 0 0 0 0 0 0 0 0 0 0 0 0 0 0 0 0 0 0 0 0 0 0 0 0 0 0 0 0 0 0 0 0 0 0 0 0
0 0 0 0 0 0 0 0 0 0 0 0 0 0 0 0 0 0 0 0 0 0 0 0 0 0 0 0 0 0 0 0 0 0 0 0 0 0 0 0 0 0 0 0
0 0 0 0 0 0 0 0 0 0 0 0 0 0 -0 0 0 0 0 0 0 0 0 0 0 0 0 0 0 0 0 0 0 0 0 0 0 0 0 0 0 0 0 0
0 0 0 0 0 0 0 0 0 0 0 0 0 0 -0 -0 0 0 0 0 0 0 0 0 0 0 0 0 0 0 0 0 0 0 0 0 0 0 0 0 0 0 0 0
0 0 0 0 0 0 0 0 0 0 0 0 0 0 0 -0 0 0 0 0 0 -0 -0 0 0 0 0 0 0 0 0 0 0 0 0 0 0 0 0 0 0 0 0 0
0 0 0 0 0 0 0 0 0 0 0 0 0 0 0 0 0 0 0 0 0 -0 -0 -0 -0 -0 -0 0 0 0 0 0 0 0 0 0 0 0 0 0 0 0 0 0
0 0 0 0 0 0 0 0 0 0 0 0 0 0 0 0 0 0 0 0 0 -0 -0 0 -0 -0 -0 -0 -0 -0 0 0 0 0 0 0 0 0 0 0 0 0 0 0
0 0 0 0 0 0 0 0 0 0 0 0 0 0 0 0 0 0 0 -0 -0 -0 0 0 0 -0 -0 -0 -0 -0 -0 0 0 0 0 0 0 0 0 0 0 0 0 0
0 0 0 0 0 0 0 0 0 0 0 0 0 0 0 0 0 0 0 -0 -0 -0 0 0 0 0 0 -0 -0 -0 -0 -0 0 0 0 0 0 0 0 0 0 0 0 0
0 0 0 0 0 0 0 0 0 0 0 0 0 0 0 0 0 0 0 -0 -0 -0 0 0 0 0 0 0 -0 -0 -0 -0 0 0 0 0 0 0 0 0 0 0 0 0
0 0 0 0 0 0 0 0 0 0 0 0 0 0 0 0 0 0 0 0 -0 0 0 0 0 0 0 0 0 0 0 0 0 0 0 0 0 0 0 0 0 0 0 0
0 0 0 0 0 0 0 0 0 0 0 0 0 0 0 0 0 0 0 0 0 0 0 0 0 -0 -0 -0 0 0 0 0 0 0 0 0 0 0 0 0 0 0 0 0
0 0 0 0 0 0 0 0 0 0 0 0 0 0 0 0 0 0 0 0 0 0 0 0 0 -0 -0 -0 0 0 0 0 0 0 0 0 0 0 0 0 0 0 0 0
0 0 0 0 0 0 -0 -0 0 0 0 0 0 0 0 0 0 0 0 0 0 0 0 0 0 -0 -0 -0 0 0 0 0 0 0 0 0 0 0 0 0 0 0 0 0
0 0 0 0 0 0 -0 0 0 0 0 0 0 0 0 0 0 0 0 0 0 0 0 0 0 -0 -0 0 0 0 0 0 0 0 0 0 0 0 0 0 0 0 0 0
0 0 0 0 0 0 -0 0 0 0 0 0 0 0 0 0 0 0 0 -0 -0 0 0 0 0 0 0 0 0 0 0 0 0 0 0 0 0 -0 -0 0 0 0 0 0
0 0 0 0 0 0 0 0 0 0 0 0 0 0 0 0 0 -0 -0 -0 -0 -0 0 0 0 0 0 0 0 0 0 0 0 0 0 0 -0 -0 -0 0 0 0 0 0
0 0 0 0 0 0 0 0 0 0 0 0 0 0 0 0 -0 -0 -0 0 0 0 0 0 0 0 0 0 0 0 0 0 0 0 0 0 -0 -0 0 0 0 0 0 0
0 0 0 0 0 0 0 0 0 0 0 0 0 0 0 0 0 -0 0 0 0 0 0 0 0 0 0 0 0 0 0 0 0 0 0 0 0 -0 -0 0 0 0 0 0
0 0 0 0 0 0 0 0 0 -0 0 0 0 0 0 0 0 0 0 0 0 0 0 0 0 0 0 0 0 0 0 0 0 0 0 0 0 -0 -0 0 0 0 0 0
Wind_Speed
1 2 4 5 6 3 2 3 6 5 4 3 8 12 12 9 7 8 8 8 9 9 8 6 6 5 5 5 7 9 10 10 9 8 8 8 9 8 8 8 9 10 9 10
1 6 5 3 3 4 4 6 6 5 3 4 8 13 11 9 8 8 9 9 9 8 7 6 5 5 5 6 7 8 10 10 10 10 9 6 6 6 6 6 7 9 9 10
7 4 2 2 3 4 6 7 6 5 6 4 5 10 6 6 5 6 6 6 6 7 7 6 5 6 5 5 6 6 8 9 10 10 6 4 4 3 5 6 7 9 10 10
4 4 2 2 4 4 8 4 5 5 4 4 1 8 7 5 6 5 6 5 6 6 5 5 5 5 5 6 6 6 6 7 7 8 8 9 9 9 9 7 6 7 9 9
4 1 3 6 5 4 4 2 5 6 5 6 4 7 8 2 5 6 5 5 6 5 5 5 5 5 5 5 4 4 5 6 5 6 9 9 9 8 5 5 5 6 6 8
4 2 2 3 3 3 2 2 3 2 2 8 8 7 8 3 5 4 4 4 5 5 5 5 5 5 5 5 4 3 2 4 4 5 6 8 10 8 6 6 6 6 5 6
4 3 2 0 1 1 1 1 1 2 3 8 4 6 8 4 3 2 3 4 4 4 4 5 6 6 6 5 5 3 2 2 2 3 4 6 7 8 8 7 7 6 5 6
2 4 3 1 2 2 3 5 5 4 5 5 3 8 7 3 2 2 2 3 4 4 5 5 5 5 5 5 5 5 3 3 2 2 3 4 4 4 4 5 5 6 5 5
2 5 3 2 2 3 1 4 3 3 3 5 6 6 7 3 3 4 5 5 5 5 6 6 6 5 5 6 6 5 5 4 3 2 2 2 2 3 3 3 4 3 4 4
2 4 5 4 1 2 3 2 1 2 4 7 7 6 5 3 4 5 6 6 6 6 6 6 6 6 5 5 5 6 5 5 4 3 2 2 2 2 2 2 2 3 3 3
1 2 5 2 3 4 2 2 3 2 3 4 6 7 3 2 2 4 5 6 6 6 6 5 5 5 5 6 6 6 6 6 6 5 4 3 2 2 1 1 2 2 2 3
1 1 4 6 5 3 3 4 4 4 5 5 6 9 2 2 4 4 5 6 5 5 6 5 5 5 5 5 5 6 6 6 6 6 5 4 4 4 3 2 2 2 2 2
1 1 2 5 3 1 2 3 4 3 3 5 7 11 4 6 7 5 5 6 6 6 6 5 5 4 4 4 4 5 5 5 5 5 5 5 4 4 4 4 3 2 2 2
2 3 5 8 6 3 6 6 5 5 6 8 11 14 12 9 8 7 7 6 6 6 5 5 5 4 4 4 4 4 5 4 5 4 4 4 4 3 3 4 4 3 2 2
0 3 6 8 9 8 10 12 10 10 10 11 13 14 14 11 8 7 6 7 7 7 6 6 6 5 5 5 4 4 5 5 4 4 4 4 4 3 3 4 4 3 3 2
1 3 3 7 8 9 12 14 13 13 12 12 14 17 12 10 6 6 7 7 8 8 8 7 6 5 5 5 5 5 5 5 4 4 4 4 4 4 3 3 4 4 3 2
2 2 2 6 6 5 11 11 11 9 9 9 13 15 10 9 10 9 8 8 8 9 9 8 7 6 6 6 5 5 5 4 4 4 4 4 3 4 4 3 3 3 3 3
4 3 2 3 2 9 10 4 7 10 11 10 11 11 9 11 10 9 8 8 9 9 9 9 7 7 6 5 5 5 4 4 4 4 4 4 4 4 4 4 4 4 3 3
7 6 3 2 5 12 10 6 5 7 11 9 11 12 11 9 8 9 7 6 8 9 9 8 7 6 6 5 4 4 5 5 5 5 5 4 4 5 4 5 4 4 3 3
3 5 4 4 5 10 9 5 4 2 10 6 7 10 10 6 8 11 7 7 9 9 8 7 6 5 5 5 4 4 5 5 6 6 6 5 5 5 5 5 5 3 3 4
2 3 6 7 8 12 9 4 1 4 9 5 6 8 8 9 11 11 8 8 8 8 8 6 5 5 5 4 4 5 6 7 7 6 6 5 5 5 5 5 4 3 3 3
8 6 7 6 8 13 6 3 6 9 6 6 7 7 9 11 11 10 9 8 8 7 7 6 5 6 5 4 4 6 7 7 6 6 6 5 5 4 4 3 4 3 3 3
9 10 8 10 12 8 6 9 7 5 7 8 8 9 9 10 10 9 8 8 8 8 7 5 5 6 5 4 4 6 7 6 6 6 6 6 5 4 4 3 4 3 3 3
6 5 6 9 12 10 9 8 7 7 8 9 9 9 8 10 10 10 9 8 7 7 6 5 5 6 6 5 5 5 6 5 5 6 6 5 5 4 4 3 3 3 3 3
8 5 6 11 12 9 9 9 9 9 8 8 8 8 9 10 11 10 9 8 7 6 5 5 5 6 7 6 6 5 5 4 5 5 5 5 4 4 4 3 3 4 4 4
8 9 9 12 9 8 9 7 7 8 9 9 9 10 9 9 10 9 8 7 6 5 5 5 6 6 6 6 6 5 5 4 4 4 4 3 3 3 3 3 4 5 5 6
Wind_Direction
121 161 214 215 212 227 219 240 264 265 286 288 268 275 281 286 280 272 268 264 262 262 266 265 256 252 243 234 221 216 215 213 202 200 203 205 212 211 210 210 208 204 203 201
134 235 236 220 212 229 242 258 264 286 294 281 280 281 278 269 259 253 258 262 264 271 279 275 267 251 236 235 230 224 219 216 207 207 205 203 203 207 211 208 208 206 204 201
217 242 210 206 228 239 245 239 245 270 312 286 291 290 269 271 266 274 272 266 271 269 275 282 277 259 244 237 234 230 225 220 214 210 200 186 181 183 198 209 213 211 206 203
252 259 247 230 237 230 257 243 247 262 276 277 250 284 278 266 282 283 285 288 285 286 289 291 297 294 267 247 236 231 227 223 218 208 200 199 203 208 212 211 211 207 203 206
254 227 219 237 243 215 249 264 249 252 247 265 235 253 278 277 273 283 284 285 290 294 297 299 299 299 300 287 262 240 227 223 217 207 206 206 214 219 213 200 203 207 207 209
264 277 227 240 262 225 237 300 292 262 233 250 233 228 273 234 247 291 306 307 304 307 316 319 324 334 337 340 329 303 251 231 223 206 204 207 211 212 206 204 207 210 210 212
306 296 279 262 324 301 215 152 328 312 253 249 227 226 253 245 246 255 295 313 321 335 342 342 346 351 345 348 349 342 333 281 248 217 210 212 214 212 213 211 211 211 212 214
290 282 250 220 205 240 241 201 206 229 241 277 245 234 248 249 273 300 315 331 340 344 346 346 342 344 342 348 355 356 350 329 306 257 236 228 223 214 217 219 213 212 215 217
242 271 296 264 228 178 232 231 229 240 281 273 254 269 286 296 332 339 341 343 338 337 343 345 348 354 356 358 359 1 355 342 334 324 293 268 245 235 229 226 222 218 219 217
194 275 293 300 325 240 196 186 144 206 233 253 264 255 257 307 322 331 334 331 329 337 344 347 350 353 356 356 358 4 4 357 344 344 332 320 288 264 244 215 222 228 225 216
197 238 297 313 219 229 227 206 197 211 222 234 265 262 241 252 311 320 321 328 324 326 329 329 331 346 359 3 5 7 5 3 2 356 343 342 333 312 304 283 256 242 234 224
255 207 264 261 257 250 232 219 200 218 247 236 261 267 285 289 309 317 316 318 321 323 324 327 336 349 357 360 359 0 2 0 355 352 356 356 356 351 336 306 294 287 262 248
228 171 313 322 320 338 249 247 241 243 240 239 245 267 303 325 322 320 321 322 327 327 324 326 333 335 336 343 347 348 353 351 350 354 355 357 358 356 342 322 310 307 297 288
277 211 209 232 253 278 281 276 264 244 243 251 247 267 290 302 305 313 313 309 310 313 317 321 319 318 317 323 332 334 336 340 342 345 347 346 343 336 329 326 320 316 309 294
25 246 246 259 269 267 263 266 261 247 241 246 261 267 274 279 284 287 295 304 309 309 311 310 308 309 314 320 323 323 323 328 331 330 330 328 328 330 332 329 320 310 307 303
190 239 269 274 270 273 270 262 254 254 251 253 267 273 270 277 278 279 284 287 288 289 292 295 296 298 300 301 305 310 311 315 317 309 310 319 324 326 325 324 318 313 307 308
224 200 261 271 296 316 268 244 236 241 240 236 253 263 278 286 278 271 272 275 280 286 288 287 282 277 282 288 294 294 294 302 303 300 303 307 309 311 313 316 313 307 306 302
205 200 230 274 339 251 249 247 232 246 254 245 254 266 271 272 273 271 262 261 274 281 282 282 283 285 289 295 298 297 297 295 292 293 296 300 303 304 307 305 299 302 305 296
203 192 206 215 252 272 284 259 219 237 261 243 251 268 273 284 293 278 259 261 267 274 275 275 277 280 287 287 291 300 301 300 294 291 293 294 295 295 295 293 291 294 293 292
189 190 194 202 232 251 257 249 233 247 268 253 248 267 277 291 284 277 280 282 278 278 281 281 284 289 286 287 293 291 291 292 287 289 292 294 291 285 283 282 285 287 283 281
178 207 215 222 240 259 256 254 140 220 261 281 260 264 265 257 256 271 286 284 278 280 285 286 283 282 281 290 292 284 285 282 291 300 300 297 292 284 280 281 280 282 284 283
198 200 212 203 229 254 239 177 207 242 273 281 276 272 270 273 278 281 282 282 285 287 288 289 287 286 292 296 287 282 281 294 305 303 299 296 296 293 288 281 282 279 269 271
214 206 205 207 226 243 213 217 233 252 271 279 284 286 279 280 284 288 286 285 286 286 287 290 286 287 294 295 284 278 292 307 307 303 298 296 296 296 291 280 277 279 266 256
243 221 228 251 258 257 256 254 259 261 263 274 279 283 282 281 284 288 289 289 288 287 288 295 291 285 290 299 296 286 296 303 297 288 290 293 295 298 295 284 269 262 258 255
230 211 233 253 266 280 266 254 264 275 279 280 282 277 273 276 281 282 286 287 286 290 297 298 289 282 286 299 301 303 303 300 292 286 286 289 289 291 294 290 277 273 270 253
212 209 223 248 251 253 270 277 278 276 279 280 285 287 283 276 279 285 284 287 290 292 297 296 292 288 291 299 300 304 304 296 288 288 286 284 287 288 287 290 298 287 279 276